Location: Invercargill
(46.4000°S, 168.3500°E)
Time: 00:54:15
(UTC+13:00)

Cosmos 405 Rocket - Pass Details

Date: 03 October 2021
Orbit: 488 x 552 km, 81.3° (Epoch: 17 October)

Event Time Altitude Azimuth Distance (km) Brightness Sun altitude
Exits shadow 23:57:33 11° 173° (S) 1,787 5.9 -35.0°
Drops below altitude 10° 23:57:39 11° 173° (S) 1,825 6.0 -35.0°
Sets 23:59:59 0° 170° (S) 2,776 7.0 -35.2°
